Location: Caserta
(41.0670°N, 14.3330°E)
Time: 01:51:11
(UTC+02:00)

STARLINK-1329 - Visible Passes

Search period start: 02 October 2020 00:00
Search period end: 12 October 2020 00:00
Orbit: 549 x 550 km, 53.0° (Epoch: 01 October)

Date Brightness Start Highest point End Pass type
(mag) Time Alt. Az. Time Alt. Az. Time Alt. Az.
02 Oct 6.6 03:49:54 14° ENE 03:49:54 14° ENE 03:50:34 10° ENE visible
02 Oct 4.9 05:25:33 26° NW 05:26:19 27° NNW 05:29:54 10° NE visible
03 Oct 6.8 03:44:45 12° NE 03:44:45 12° NE 03:45:06 10° NE visible
03 Oct 5.1 05:20:24 23° NNW 05:20:57 23° NNW 05:24:21 10° NE visible
04 Oct 7.0 03:39:33 10° NE 03:39:33 10° NE 03:39:34 10° NE visible
04 Oct 5.3 05:15:12 20° NNW 05:15:36 21° NNW 05:18:47 10° NNE visible
05 Oct 5.5 05:09:58 19° NNW 05:10:15 19° NNW 05:13:14 10° NNE visible
06 Oct 5.7 05:04:42 17° NNW 05:04:54 17° N 05:07:41 10° NNE visible
07 Oct 5.8 04:59:25 16° N 04:59:33 16° N 05:02:12 10° NNE visible
07 Oct 5.7 06:37:19 10° NNW 06:40:23 19° NNE 06:43:26 10° ENE visible
08 Oct 5.9 04:54:07 16° N 04:54:11 16° N 04:56:45 10° NE visible
08 Oct 5.6 06:31:42 10° NNW 06:34:58 22° NNE 06:38:14 10° ENE visible
09 Oct 6.0 04:48:50 15° N 04:48:50 15° N 04:51:21 10° NE visible
09 Oct 5.5 06:26:04 10° NW 06:29:32 25° NNE 06:33:00 10° ENE visible
10 Oct 6.0 04:43:34 16° N 04:43:34 16° N 04:45:59 10° NE visible
10 Oct 5.2 06:20:23 10° NW 06:24:03 29° NNE 06:27:43 10° E visible
11 Oct 6.1 04:38:20 16° NNE 04:38:20 16° NNE 04:40:41 10° NE visible
11 Oct 5.0 06:14:42 10° NW 06:18:32 35° NNE 06:22:22 10° E visible
